DW0529 Weather Reports


Display with metric or nautical units.
time (UTC)temp
F
wind
direction
speed
MPH
gust
MPH
rain 1hr
in
rain 24hr
in
rain mn
in
humidity
%
barometer
mb
20260508092857 54 206 0.0 0.0 0.00 0.00 0.00 98 970.6
20260508091859 54 206 0.0 0.0 0.00 0.00 0.00 98 970.7
20260508090915 54 205 0.0 0.0 0.00 0.00 0.00 98 970.7
20260508085845 55 205 0.0 0.0 0.00 0.00 0.00 98 970.7
20260508084849 55 206 0.0 0.0 0.00 0.00 0.00 98 970.8
20260508083831 55 206 0.0 0.0 0.00 0.00 0.00 98 970.9
20260508082806 55 205 0.0 0.0 0.00 0.00 0.00 98 971.1
20260508081749 55 206 0.0 0.0 0.00 0.00 0.00 98 971.0
20260508080739 55 205 0.0 0.0 0.00 0.00 0.00 98 971.2
20260508075720 55 205 0.0 0.0 0.00 0.00 0.00 98 971.3
20260508074703 55 205 0.0 2.0 0.00 0.00 0.00 98 971.2
20260508073639 55 205 0.0 2.0 0.00 0.00 0.00 98 971.2
20260508072657 55 205 0.0 1.0 0.00 0.00 0.00 98 971.2
20260508071644 55 205 0.0 1.0 0.00 0.00 0.00 98 971.2
20260508070632 55 205 0.0 2.0 0.00 0.00 0.00 98 971.2
20260508065612 56 205 0.0 2.0 0.00 0.00 0.00 97 971.1
20260508064544 56 207 0.0 3.0 0.00 0.00 0.00 97 971.1
20260508063559 56 199 0.0 4.0 0.00 0.00 0.00 97 971.1
20260508062531 56 208 0.0 2.0 0.00 0.00 0.00 97 971.0
20260508061523 56 210 0.0 4.0 0.00 0.00 0.00 97 970.9
20260508054205 55 209 0.0 0.0 0.00 0.00 0.00 96 971.0
20260508053230 55 208 0.0 0.0 0.00 0.00 0.00 95 971.0
20260508051122 55 209 0.0 2.0 0.00 0.00 0.00 95 970.9
20260508050133 56 209 0.0 2.0 0.00 0.00 0.00 94 970.9
20260508045119 56 209 0.0 2.0 0.00 0.00 0.00 94 970.8
20260508042936 56 209 0.0 0.0 0.00 0.00 0.00 92 970.6
20260508040749 57 209 0.0 0.0 0.00 0.00 0.00 91 970.3
20260508035723 57 209 0.0 0.0 0.00 0.00 0.00 90 970.1
20260508034702 57 209 0.0 0.0 0.00 0.00 0.00 88 970.0
20260508033719 57 209 0.0 0.0 0.00 0.00 0.00 88 969.9
20260508032724 57 209 0.0 0.0 0.00 0.00 0.00 88 969.7
20260508031742 58 209 0.0 0.0 0.00 0.00 0.00 87 969.6
20260508024444 59 209 0.0 0.0 0.00 0.00 0.00 84 969.3
20260508021235 62 193 0.0 1.0 0.00 0.00 0.00 77 969.0
20260508020203 63 204 0.0 1.0 0.00 0.00 0.00 75 969.0
20260508015228 63 204 0.0 5.0 0.00 0.00 0.00 74 968.9
20260508014155 64 217 0.0 2.0 0.00 0.00 0.00 72 968.8
20260508012115 66 207 0.0 2.0 0.00 0.00 0.00 68 968.9
20260508011044 67 191 0.0 2.0 0.00 0.00 0.00 66 968.9
20260508010044 67 213 0.0 3.0 0.00 0.00 0.00 65 968.9
20260508005043 68 207 0.0 3.0 0.00 0.00 0.00 62 969.0
20260508004103 69 209 0.0 4.0 0.00 0.00 0.00 62 968.9
20260508003109 69 174 0.0 4.0 0.00 0.00 0.00 61 968.8
20260508002111 69 227 0.0 2.0 0.00 0.00 0.00 63 968.9
20260508001116 69 227 0.0 4.0 0.00 0.00 0.00 63 968.9
20260508000113 69 200 0.0 3.0 0.00 0.00 0.00 63 968.9
20260507235117 69 235 1.0 6.0 0.00 0.00 0.00 64 969.0
20260507234128 69 180 1.0 6.0 0.00 0.00 0.00 64 969.0
20260507233104 70 202 1.0 3.0 0.00 0.00 0.00 64 969.1
20260507232046 70 225 0.0 3.0 0.00 0.00 0.00 64 969.1
20260507225921 71 243 1.0 4.0 0.00 0.00 0.00 64 969.1
20260507224914 71 219 1.0 5.0 0.00 0.00 0.00 63 969.2
20260507223912 70 186 2.0 7.0 0.00 0.00 0.00 63 969.2
20260507222924 70 128 2.0 8.0 0.00 0.00 0.00 61 969.3
20260507221905 71 198 2.0 8.0 0.00 0.00 0.00 61 969.3
20260507220844 71 243 1.0 6.0 0.00 0.00 0.00 59 969.5
20260507215858 70 228 2.0 6.0 0.00 0.00 0.00 61 969.5
20260507214844 71 216 2.0 8.0 0.00 0.00 0.00 59 969.7
20260507213852 72 165 2.0 8.0 0.00 0.00 0.00 58 969.8
20260507212910 72 207 1.0 8.0 0.00 0.00 0.00 58 969.8
20260507211905 71 215 3.0 8.0 0.00 0.00 0.00 58 969.9
20260507210920 72 198 2.0 8.0 0.00 0.00 0.00 55 970.1
20260507205938 71 199 3.0 8.0 0.00 0.00 0.00 55 970.2
20260507204956 71 234 2.0 7.0 0.00 0.00 0.00 55 970.3
20260507202811 70 182 2.0 7.0 0.00 0.00 0.00 56 970.4
20260507201738 70 190 2.0 7.0 0.00 0.00 0.00 54 970.5
20260507200801 71 155 2.0 7.0 0.00 0.00 0.00 55 970.7
20260507195817 72 173 2.0 6.0 0.00 0.00 0.00 56 970.7
20260507194832 71 178 1.0 6.0 0.00 0.00 0.00 56 970.8
20260507191534 71 201 1.0 4.0 0.00 0.00 0.00 59 971.0
20260507190537 71 221 1.0 6.0 0.00 0.00 0.00 59 971.0
20260507185525 71 211 1.0 6.0 0.00 0.00 0.00 60 971.1
20260507184505 71 220 1.0 5.0 0.00 0.00 0.00 60 971.1
20260507183514 71 167 1.0 5.0 0.00 0.00 0.00 60 971.2
20260507182514 70 190 1.0 5.0 0.00 0.00 0.00 61 971.2
20260507180410 71 186 0.0 5.0 0.00 0.00 0.00 60 971.2
20260507175345 69 142 1.0 5.0 0.00 0.00 0.00 61 971.3
20260507174332 69 207 1.0 5.0 0.00 0.00 0.00 63 971.3
20260507173303 69 208 1.0 5.0 0.00 0.00 0.00 63 971.4
20260507172307 68 231 1.0 4.0 0.00 0.00 0.00 66 971.4
20260507170158 67 197 1.0 5.0 0.00 0.00 0.00 67 971.4
20260507165134 67 167 1.0 4.0 0.00 0.00 0.00 67 971.4
20260507163054 66 198 0.0 3.0 0.00 0.00 0.00 69 971.7
20260507162103 65 205 0.0 0.0 0.00 0.00 0.00 70 971.7
20260507161045 65 211 0.0 3.0 0.00 0.00 0.00 70 971.7
20260507160015 64 207 0.0 3.0 0.00 0.00 0.00 69 971.7
20260507155001 64 195 0.0 1.0 0.00 0.00 0.00 69 971.7
20260507154022 63 195 0.0 2.0 0.00 0.00 0.00 71 971.8
20260507153040 62 194 0.0 2.0 0.00 0.00 0.00 72 971.7
20260507152032 61 169 0.0 0.0 0.00 0.00 0.00 75 971.6
20260507151019 60 169 0.0 0.0 0.00 0.00 0.00 76 971.7
20260507150039 60 168 0.0 0.0 0.00 0.00 0.00 75 971.8
20260507145026 59 168 0.0 0.0 0.00 0.00 0.00 75 971.7
20260507143951 58 168 0.0 0.0 0.00 0.00 0.00 74 971.7
20260507141849 57 168 0.0 0.0 0.00 0.00 0.00 79 971.6
20260507140829 56 168 0.0 0.0 0.00 0.00 0.00 80 971.4
20260507134716 57 168 0.0 0.0 0.00 0.00 0.00 79 971.1
20260507132551 57 98 0.0 0.0 0.00 0.00 0.00 76 970.9
20260507131527 57 98 0.0 0.0 0.00 0.00 0.00 76 970.9
20260507130547 57 98 0.0 0.0 0.00 0.00 0.00 78 970.9
20260507125548 57 98 0.0 0.0 0.00 0.00 0.00 79 970.9
20260507124539 57 98 0.0 0.0 0.00 0.00 0.00 79 970.8
20260507122329 57 98 0.0 0.0 0.00 0.00 0.00 79 970.7
20260507121352 57 98 0.0 0.0 0.00 0.00 0.00 79 970.8
20260507120414 57 98 0.0 0.0 0.00 0.00 0.00 79 970.8
20260507115438 57 98 0.0 0.0 0.00 0.00 0.00 79 970.8
20260507114436 57 98 0.0 0.0 0.00 0.00 0.00 78 970.8
20260507113411 57 98 0.0 0.0 0.00 0.00 0.00 78 970.9
20260507112434 57 98 0.0 0.0 0.00 0.00 0.00 77 970.9
20260507111432 57 98 0.0 0.0 0.00 0.00 0.00 78 971.0
20260507110457 57 98 0.0 0.0 0.00 0.00 0.00 78 970.9
20260507105450 58 98 0.0 0.0 0.00 0.00 0.00 78 971.1
20260507104420 58 98 0.0 0.0 0.00 0.00 0.00 77 971.1
20260507103436 57 98 0.0 0.0 0.00 0.00 0.00 79 971.3
20260507102434 57 98 0.0 0.0 0.00 0.00 0.00 79 971.3
20260507101458 57 98 0.0 0.0 0.00 0.00 0.00 79 971.4
20260507100452 57 98 0.0 0.0 0.00 0.00 0.00 79 971.3
20260507095504 57 98 0.0 0.0 0.00 0.00 0.00 79 971.4